COSMOS 2500 (755)

Last updated on Thu Nov 21 2024 00:03:12 GMT+0000 (Coordinated Universal Time)

1 40001U 14032A 24325.14157739 -.00000054 00000+0 00000+0 0 9996 2 40001 65.5435 333.1703 0008648 219.9343 140.0302 2.13105965 81227
UTC large
Height (km)
Speed (km/s)
/
Latitude / Longitude
Inclination (degrees)
Orbital Period (minutes)
Azimuth
Elevation
Range (km)
Doppler Factor

Next 0 passes for location: London (51.5072 / 0.1276)

Sorry there are no passes over London.